Location: Brest
(52.1000°N, 23.7000°E)
Time: 12:51:48
(UTC+02:00)

Envisat - Visible Passes

Search period start: 23 March 2019 00:00
Search period end: 02 April 2019 01:00
Orbit: 764 x 766 km, 98.2° (Epoch: 22 March)

Date Brightness Start Highest point End Pass type
(mag) Time Alt. Az. Time Alt. Az. Time Alt. Az.
23 Mar 5.5 20:05:03 10° SW 20:09:03 23° W 20:13:05 10° NW visible
24 Mar 4.3 19:27:08 10° S 19:31:59 44° W 19:36:52 10° NNW visible
25 Mar 6.0 20:32:10 10° WSW 20:34:56 14° W 20:37:42 10° NW visible
26 Mar 5.2 19:53:23 10° SSW 19:57:43 28° W 20:02:05 10° NW visible
27 Mar 4.0 19:15:44 10° S 19:20:43 54° W 19:25:42 10° NNW visible
28 Mar 5.8 20:20:10 10° SW 20:23:33 18° W 20:26:58 10° NW visible
29 Mar 4.9 19:41:49 10° SSW 19:46:24 34° W 19:51:01 10° NNW visible
30 Mar 6.3 20:48:21 10° W 20:49:30 11° W 20:50:38 10° WNW visible
31 Mar 5.7 21:08:21 10° SW 21:12:12 21° W 21:16:04 10° NW visible
01 Apr 4.5 20:30:19 10° SSW 20:35:06 41° W 20:39:56 10° NNW visible
